| time (UTC) | temp C | wind direction | speed KPH | gust KPH | rain 1hr cm | rain 24hr cm | rain mn cm | humidity % | barometer mb |
| 20260504023004 | 10 | 174 | 0.0 | 0.0 | 0.00 | 0.00 | 0.00 | 59 | 1012.5 |
| 20260504021504 | 8 | 259 | 0.0 | 4.8 | 0.00 | 0.00 | 0.00 | 63 | 1012.5 |
| 20260504020004 | 7 | 207 | 0.0 | 0.0 | 0.00 | 0.00 | 0.00 | 67 | 1012.1 |
| 20260504014503 | 8 | 207 | 0.0 | 0.0 | 0.00 | 0.00 | 0.00 | 64 | 1011.9 |
| 20260504013002 | 9 | 207 | 0.0 | 0.0 | 0.00 | 0.00 | 0.00 | 61 | 1011.8 |
| 20260504011502 | 10 | 217 | 0.0 | 0.0 | 0.00 | 0.00 | 0.00 | 58 | 1011.8 |
| 20260504010002 | 10 | 138 | 0.0 | 0.0 | 0.00 | 0.00 | 0.00 | 56 | 1011.9 |
| 20260504004622 | 11 | 205 | 0.0 | 0.0 | 0.00 | 0.00 | 0.00 | 52 | 1011.9 |
| 20260504003102 | 12 | 208 | 0.0 | 0.0 | 0.00 | 0.00 | 0.00 | 49 | 1011.8 |
| 20260504001607 | 12 | 205 | 0.0 | 0.0 | 0.00 | 0.00 | 0.00 | 47 | 1011.9 |
| 20260504000107 | 13 | 201 | 0.0 | 3.2 | 0.00 | 0.00 | 0.00 | 45 | 1012.0 |
| 20260503234556 | 13 | 315 | 0.0 | 19.3 | 0.00 | 0.00 | 0.00 | 45 | 1012.0 |
| 20260503233056 | 13 | 234 | 0.0 | 0.0 | 0.00 | 0.00 | 0.00 | 44 | 1012.0 |
| 20260503231557 | 13 | 203 | 0.0 | 14.5 | 0.00 | 0.00 | 0.00 | 44 | 1012.1 |
| 20260503230054 | 13 | 264 | 3.2 | 22.5 | 0.00 | 0.00 | 0.00 | 44 | 1012.2 |
| 20260503224553 | 14 | 238 | 4.8 | 20.9 | 0.00 | 0.00 | 0.00 | 42 | 1012.2 |
| 20260503223052 | 14 | 169 | 1.6 | 20.9 | 0.00 | 0.00 | 0.00 | 41 | 1012.2 |
| 20260503221554 | 14 | 238 | 1.6 | 16.1 | 0.00 | 0.00 | 0.00 | 41 | 1012.4 |
| 20260503220051 | 15 | 136 | 1.6 | 19.3 | 0.00 | 0.00 | 0.00 | 40 | 1012.4 |
| 20260503214548 | 15 | 221 | 4.8 | 20.9 | 0.00 | 0.00 | 0.00 | 40 | 1012.5 |
| 20260503213053 | 15 | 221 | 3.2 | 11.3 | 0.00 | 0.00 | 0.00 | 41 | 1012.5 |
| 20260503211547 | 15 | 228 | 4.8 | 17.7 | 0.00 | 0.00 | 0.00 | 41 | 1012.4 |
| 20260503210047 | 15 | 252 | 4.8 | 24.1 | 0.00 | 0.00 | 0.00 | 41 | 1012.4 |
| 20260503210007 | 15 | 203 | 8.0 | 24.1 | 0.00 | 0.00 | 0.00 | 41 | 1012.4 |
| 20260503204547 | 15 | 302 | 0.0 | 20.9 | 0.00 | 0.00 | 0.00 | 41 | 1012.4 |
| 20260503203045 | 15 | 272 | 6.4 | 22.5 | 0.00 | 0.00 | 0.00 | 40 | 1012.5 |
| 20260503201542 | 15 | 301 | 1.6 | 14.5 | 0.00 | 0.00 | 0.00 | 39 | 1012.8 |
| 20260503200039 | 15 | 252 | 0.0 | 9.7 | 0.00 | 0.00 | 0.00 | 42 | 1013.0 |
| 20260503194542 | 15 | 216 | 1.6 | 24.1 | 0.00 | 0.00 | 0.00 | 38 | 1013.3 |
| 20260503193041 | 15 | 243 | 3.2 | 25.7 | 0.00 | 0.00 | 0.00 | 40 | 1013.6 |
| 20260503191536 | 16 | 288 | 6.4 | 20.9 | 0.00 | 0.00 | 0.00 | 37 | 1013.8 |
| 20260503190043 | 15 | 278 | 8.0 | 22.5 | 0.00 | 0.00 | 0.00 | 38 | 1014.0 |
| 20260503184530 | 16 | 243 | 3.2 | 24.1 | 0.00 | 0.00 | 0.00 | 38 | 1014.2 |
| 20260503183028 | 16 | 283 | 3.2 | 22.5 | 0.00 | 0.00 | 0.00 | 41 | 1014.3 |
| 20260503181526 | 16 | 245 | 3.2 | 27.4 | 0.00 | 0.00 | 0.00 | 38 | 1014.5 |
| 20260503180025 | 16 | 294 | 0.0 | 24.1 | 0.00 | 0.00 | 0.00 | 42 | 1014.7 |
| 20260503174527 | 15 | 309 | 0.0 | 30.6 | 0.00 | 0.00 | 0.00 | 43 | 1014.8 |
| 20260503173021 | 15 | 214 | 1.6 | 24.1 | 0.00 | 0.00 | 0.00 | 42 | 1015.0 |
| 20260503171517 | 15 | 212 | 0.0 | 32.2 | 0.00 | 0.00 | 0.00 | 45 | 1015.3 |
| 20260503150104 | 11 | 276 | 3.2 | 29.0 | 0.00 | 0.00 | 0.00 | 45 | 1016.7 |
| 20260503081526 | -1 | 209 | 0.0 | 0.0 | 0.00 | 0.00 | 0.00 | 93 | 1016.3 |
| 20260503071515 | 0 | 218 | 0.0 | 0.0 | 0.00 | 0.00 | 0.00 | 91 | 1016.2 |
| 20260503054550 | 2 | 218 | 0.0 | 0.0 | 0.00 | 0.00 | 0.00 | 85 | 1016.4 |
| 20260503053049 | 2 | 218 | 0.0 | 0.0 | 0.00 | 0.00 | 0.00 | 84 | 1016.4 |
| 20260503051547 | 3 | 218 | 0.0 | 0.0 | 0.00 | 0.00 | 0.00 | 85 | 1016.5 |
| 20260503050045 | 2 | 215 | 0.0 | 0.0 | 0.00 | 0.00 | 0.00 | 88 | 1016.5 |
| 20260503044547 | 2 | 256 | 0.0 | 0.0 | 0.00 | 0.00 | 0.00 | 90 | 1016.6 |
| 20260503043042 | 2 | 256 | 0.0 | 0.0 | 0.00 | 0.00 | 0.00 | 90 | 1016.6 |
| 20260503041540 | 2 | 256 | 0.0 | 0.0 | 0.00 | 0.00 | 0.00 | 90 | 1016.7 |
| 20260503040037 | 2 | 256 | 0.0 | 0.0 | 0.00 | 0.00 | 0.00 | 89 | 1016.8 |
| 20260503034550 | 2 | 256 | 0.0 | 0.0 | 0.00 | 0.00 | 0.00 | 88 | 1016.7 |
| 20260503033036 | 2 | 256 | 0.0 | 0.0 | 0.00 | 0.00 | 0.00 | 88 | 1016.8 |
| 20260503031535 | 2 | 257 | 0.0 | 0.0 | 0.00 | 0.00 | 0.00 | 87 | 1016.9 |
| 20260503030039 | 2 | 256 | 0.0 | 0.0 | 0.00 | 0.00 | 0.00 | 87 | 1016.9 |
| 20260503024534 | 2 | 256 | 0.0 | 0.0 | 0.00 | 0.00 | 0.00 | 87 | 1017.0 |